Погода в Ключи

Погода в Ключи : погода сейчас, прогноз погоды и архив. Всё, что Вы хотите узнать о погоде в Ключи!

Хотите узнать прогноз погоды в Ключи? Тогда Вам сюда: Погода в Ключи

Поиск расширенной информации на нашем сайте:

Другие новости

Новости СМИ2

Главная страница сайта

Новости сайта

03.07.2017

Напоминаем, что на нашем специализированном сайте Метеоцентр.Азия вы можете получить высокодетализированные автоматические прогнозы погоды по пунктам России, СНГ и мира в авиационном формате (включающие направление и скорость ветра, видимость, явления погоды, количество и форму облачности, нижнюю и верхнюю границу облачности).


Погода в Ключи - сегодня

Время (UTC), дата Ветер
(°,м/с) 
Видим.   Явления Облачность Т
(°С)
Тd
(°С)
f(%) Тe
(°С)
Pmin
(гПа)
dP
(гПа)
Po
(мм)
O2
(г/м3)
Тmin Tmax R s Состояние
почвы
12 13.08.18 280 (З) 20000 м  {ливн. осадки}  9/6 1000 м средняя 
[Sc|Ac trans]
+13.7 +12 89 +19  1016.2  0.9  760  289           
15 13.08.18 тихо ()   н/о    н/о 
+11 +9.9 93 +12  1016.8  0.2  760  293           
18 13.08.18 тихо ()   1000 м  туман  ясно 
+12.4 +10.7 89 +14  1017.2  0.7  760  291           
21 13.08.18 090 (В) 2000 м  дымка{туман}  10/10 300 м 
[St]
+13.3 +12 92 +18  1020.2  763  291  +11.3      влажная 
03 14.08.18 080 (В) 10 км    9/8 600 м средняя 
[Sc|Ac trans]
+16.2 +10.6 69 +20  1018.4  761  288           
06 14.08.18 080 (В) 20000 м    9/5 1000 м средняя 
[Sc|Ac trans]
+17 +10.2 64 +18  1018.4  761  287           
15 14.08.18 090 (В) н/о    н/о 
+12.9 +10.5 85 +13  1020.5  0.2  763  292           
18 14.08.18 080 (В) 4{10}  н/о    н/о 
+12.7 +10.2 85 +13  1020.2  -0.3  763  292           
21 14.08.18 090 (В) 4000 м  дымка  10/10 360 м 
[St]
+13.3 +10.2 81 +14  1020.5  -0.1  763  291  +12.6        влажная 
00 15.08.18 100 (В) 10 км    10/10 600 м 
[Sc]
+14.6 +10.2 75 +15  1021  -0.5  763  290           
03 15.08.18 100 (В) 10 км  слаб. ливневой дождь  10/9 600 м кучево-дожд., средняя 
[Cb cap|Ac As]
+13.9 +11.1 83 +15  1020.9  -0.1  763  291           
06 15.08.18 100 (В) 20000 м  слаб. ливневой дождь  10/8 600 м кучево-дожд., средняя 
[Cb cap|Ac As]
+13.2 +10.1 81 +13  1019.8  -1.1  762  291           
09 15.08.18 100 (В) 10 км  слаб. ливневой дождь  10/6 720 м кучево-дожд., средняя 
[Cb cap|Ac As]
+11.9 +8 77 +11  1019.1  -0.7  762  293    +15.1  0.0     
15 15.08.18 120 (ЮВ) 10 км    10/8 800 м средняя 
[Sc|Ac As]
+10.6 +7.7 82 +11  1018  -0.6  761  294           
21 15.08.18 120 (ЮВ) 10 км  слаб. ливневой дождь  10/10 720 м кучево-дожд. 
[Cb cap]
+11 +9 87 +11  1016.9  -0.5  760  293  +10.5      влажная 
03 16.08.18 120 (ЮВ) 10 км  слаб. ливневой дождь  10/10 600 м кучево-дожд. 
[Cb cap]
+13 +9.9 81 +14  1014.5  -1.5  758  290           
06 16.08.18 110 (В) н/о    н/о 
+14 +9.1 72 +14  1013.9  -0.8  758  289           
09 16.08.18 110 (В) 10 км  слаб. ливневой дождь  10/9 750 м кучево-дожд., средняя 
[Cb cap|Ac As]
+11.5 +10.1 91 +13  1014  0.3  758  291    +14.3     
15 16.08.18 120 (ЮВ) 20000 м  {ливн. осадки}  10/8 600 м средняя 
[Sc|Ac As]
+10.9 +9.9 94 +13  1013.7  -0.9  758  292           
18 16.08.18 тихо ()   н/о    н/о 
+9.9 +8.5 91 +10  1014.3  0.2  758  293           
21 16.08.18 290 (З) 20000 м  слаб. ливневой дождь  10/8 900 м кучево-дожд., средняя 
[Cb cap|Ac As]
+11.1 +9.5 90 +12  1014.8  0.7  758  292  +10.1    0.7    влажная 
06 17.08.18 070 (В) 20000 м  {ливн. осадки}  10/5 1000 м средняя 
[Sc|Ac As]
+13.8 +8.4 70 +14  1016  759  290           
12 17.08.18 100 (В) 20000 м    9/5 1000 м средняя 
[Sc|Ac trans]
+10.9 +7.6 80 +11  1017.6  1.2  761  293           
15 17.08.18 110 (В) н/о    н/о 
+8.1 +6.7 91 +7  1018.3  761  297           
18 17.08.18 130 (ЮВ) 20000 м    6/3 1000 м средняя 
[Sc|Ac trans]
+7.2 +4.7 84 +6  1018.7  0.6  761  298           
Время (UTC), дата Ветер
(°,м/с) 
Видим.   Явления Облачность Т
(°С)
Тd
(°С)
f(%) Тe
(°С)
Pmin
(гПа)
dP
(гПа)
Po
(мм)
O2
(г/м3)
Тmin Tmax R s Состояние
почвы

Для получения пояснительной информации подведите курсор к названию столбца.

ПОГОДА в Ключи - архив

Всё, что Вы хотите узнать о погоде в Ключи - удобно и подробно!

Выберите нужную дату (начиная с 1 января 2015* года) и нажмите кнопку "Найти".
Будут отображены архивные сводки погоды по пункту Ключи, начиная с указанной даты.


Отображать данные в формате CSV (для использования в таблицах Excel)


Внимание! Наш архив погоды предназначен исключительно для личного некоммерческого использования в познавательных целях. Если Вам необходимы официальные справки о состоянии погоды (для производственных, юридических, коммерческих и т.п. целей), обращайтесь в органы Росгидромета.

*Примечание: данная дата относится к архиву по метеостанциям СССР (Россия, СНГ, Балтия).
Архив по метеостанциям Зарубежной Европы и Азии (кроме Китая) хранится 10 дней, по другим регионам земного шара (Китай, Африка, Америка, Австралия, Океания) - 1 день.

Ключи - район местоположения метеостанции


Название, широта, долгота, высота метеостанции:
Ключи 56.3°ш. 160.8°д. 29 м над ур. моря [Российская Федерация]

Дополнительная информация

В oтличие oт бoльшинства пoгoдных сайтoв мы публикуем пoдрoбную метеoинфoрмацию в детальнoм прoфессиoнальнoм фoрмате.

Характеристики температуры и влажнoсти вoздуха измеряются на высoте 2 м в тени вдали oт зданий и деревьев.
Скoрoсть ветра измеряется на высoте 10 м (на урoвне рoста челoвека скoрoсть ветра ниже в 1.5-2 раза). Если метеoстанция нахoдится в гoрoде или в лесу, тo скoрoсть ветра занижена на 2-4 м/с пo сравнению с oткрытым местoм. Скoрoсть ветра над акватoриями крупных рек и oзёр, а также на вершинах хoлмoв на 2-5 м/с выше, чем в oбычных услoвиях.
Атмoсфернoе давление в разных тoчках местнoсти мoжет значительнo oтличаться oт давления на метеoстанции, в зависимoсти oт услoвий рельефа (при пoдъёме на 10 м давление пoнижается примернo на 1 мм рт.ст.).